| time (UTC) | temp F | wind direction | speed MPH | gust MPH | rain 1hr in | rain 24hr in | rain mn in | humidity % | barometer mb |
| 20260505092824 | 66 | 231 | 5.0 | 15.0 | 0.00 | 0.00 | 0.00 | 100 | 1020.8 |
| 20260505090821 | 67 | 229 | 15.0 | 15.0 | 0.00 | 0.00 | 0.00 | 100 | 1020.7 |
| 20260505085820 | 68 | 218 | 8.0 | 12.0 | 0.00 | 0.00 | 0.00 | 100 | 1020.3 |
| 20260505084818 | 68 | 192 | 5.0 | 13.0 | 0.00 | 0.00 | 0.00 | 100 | 1020.1 |
| 20260505083817 | 69 | 240 | 6.0 | 10.0 | 0.00 | 0.00 | 0.00 | 100 | 1020.2 |
| 20260505082816 | 69 | 225 | 10.0 | 16.0 | 0.00 | 0.00 | 0.00 | 100 | 1020.1 |
| 20260505081814 | 69 | 225 | 12.0 | 16.0 | 0.00 | 0.00 | 0.00 | 100 | 1020.2 |
| 20260505080813 | 70 | 231 | 10.0 | 11.0 | 0.00 | 0.00 | 0.00 | 100 | 1020.0 |
| 20260505075812 | 70 | 238 | 11.0 | 15.0 | 0.00 | 0.00 | 0.00 | 100 | 1019.9 |
| 20260505074810 | 71 | 229 | 8.0 | 14.0 | 0.00 | 0.00 | 0.00 | 100 | 1019.7 |
| 20260505065805 | 72 | 238 | 8.0 | 11.0 | 0.00 | 0.00 | 0.00 | 100 | 1019.2 |
| 20260505055755 | 74 | 229 | 4.0 | 15.0 | 0.00 | 0.00 | 0.00 | 100 | 1018.6 |
| 20260505051750 | 76 | 198 | 4.0 | 7.0 | 0.00 | 0.00 | 0.00 | 100 | 1018.6 |
| 20260505050749 | 77 | 225 | 7.0 | 7.0 | 0.00 | 0.00 | 0.00 | 100 | 1018.9 |
| 20260505041742 | 82 | 72 | 1.0 | 5.0 | 0.00 | 0.00 | 0.00 | 100 | 1019.3 |
| 20260505035739 | 79 | 90 | 2.0 | 2.0 | 0.00 | 0.00 | 0.00 | 100 | 1019.4 |
| 20260505034738 | 79 | 45 | 1.0 | 3.0 | 0.00 | 0.00 | 0.00 | 100 | 1019.5 |
| 20260505033736 | 79 | 81 | 2.0 | 4.0 | 0.00 | 0.00 | 0.00 | 100 | 1019.4 |
| 20260505032735 | 79 | 45 | 0.0 | 0.0 | 0.00 | 0.00 | 0.00 | 100 | 1019.4 |
| 20260505031734 | 79 | 306 | 0.0 | 3.0 | 0.00 | 0.00 | 0.00 | 100 | 1019.4 |
| 20260505025731 | 80 | 83 | 0.0 | 3.0 | 0.00 | 0.00 | 0.00 | 100 | 1019.4 |
| 20260505024730 | 81 | 225 | 1.0 | 4.0 | 0.00 | 0.00 | 0.00 | 100 | 1019.6 |
| 20260505023728 | 81 | 90 | 0.0 | 2.0 | 0.00 | 0.00 | 0.00 | 100 | 1019.5 |
| 20260505022727 | 82 | 112 | 0.0 | 3.0 | 0.00 | 0.00 | 0.00 | 100 | 1019.6 |
| 20260505021726 | 82 | 90 | 0.0 | 4.0 | 0.00 | 0.00 | 0.00 | 100 | 1019.6 |
| 20260505020724 | 82 | 90 | 0.0 | 2.0 | 0.00 | 0.00 | 0.00 | 100 | 1019.6 |
| 20260505015723 | 83 | 90 | 0.0 | 1.0 | 0.00 | 0.00 | 0.00 | 100 | 1019.7 |
| 20260505014722 | 83 | 90 | 0.0 | 1.0 | 0.00 | 0.00 | 0.00 | 100 | 1019.6 |
| 20260505013720 | 83 | 90 | 1.0 | 2.0 | 0.00 | 0.00 | 0.00 | 100 | 1019.5 |
| 20260505012720 | 84 | 90 | 1.0 | 1.0 | 0.00 | 0.00 | 0.00 | 100 | 1019.4 |
| 20260505010716 | 85 | 74 | 0.0 | 3.0 | 0.00 | 0.00 | 0.00 | 100 | 1019.4 |
| 20260505005715 | 85 | 65 | 0.0 | 3.0 | 0.00 | 0.00 | 0.00 | 100 | 1019.6 |
| 20260505004713 | 85 | 191 | 0.0 | 2.0 | 0.00 | 0.00 | 0.00 | 100 | 1019.4 |
| 20260505003712 | 85 | 58 | 1.0 | 3.0 | 0.00 | 0.00 | 0.00 | 100 | 1019.3 |
| 20260505002711 | 84 | 90 | 0.0 | 2.0 | 0.00 | 0.00 | 0.00 | 100 | 1019.2 |
| 20260505000708 | 84 | 62 | 0.0 | 2.0 | 0.00 | 0.00 | 0.00 | 100 | 1019.2 |
| 20260504235707 | 84 | 45 | 0.0 | 3.0 | 0.00 | 0.00 | 0.00 | 100 | 1019.0 |
| 20260504233704 | 83 | 63 | 1.0 | 2.0 | 0.00 | 0.00 | 0.00 | 100 | 1019.1 |
| 20260504232702 | 82 | 52 | 1.0 | 2.0 | 0.00 | 0.00 | 0.00 | 100 | 1019.0 |
| 20260504231701 | 81 | 94 | 0.0 | 2.0 | 0.00 | 0.00 | 0.00 | 100 | 1019.0 |
| 20260504230700 | 80 | 135 | 1.0 | 3.0 | 0.00 | 0.00 | 0.00 | 100 | 1019.1 |
| 20260504225658 | 79 | 119 | 0.0 | 3.0 | 0.00 | 0.00 | 0.00 | 100 | 1019.0 |
| 20260504223652 | 77 | 140 | 0.0 | 3.0 | 0.00 | 0.00 | 0.00 | 100 | 1018.5 |
| 20260504222651 | 76 | 58 | 1.0 | 2.0 | 0.00 | 0.00 | 0.00 | 100 | 1018.4 |
| 20260504221648 | 75 | 51 | 1.0 | 4.0 | 0.00 | 0.00 | 0.00 | 100 | 1018.3 |
| 20260504220648 | 74 | 47 | 1.0 | 3.0 | 0.00 | 0.00 | 0.00 | 100 | 1018.3 |
| 20260504212641 | 68 | 116 | 0.0 | 1.0 | 0.00 | 0.00 | 0.00 | 100 | 1018.0 |
| 20260504211641 | 66 | 171 | 0.0 | 1.0 | 0.00 | 0.00 | 0.00 | 100 | 1017.8 |
| 20260504210640 | 64 | 90 | 1.0 | 1.0 | 0.00 | 0.00 | 0.00 | 100 | 1017.6 |
| 20260504205637 | 62 | 225 | 0.0 | 1.0 | 0.00 | 0.00 | 0.00 | 100 | 1017.2 |
| 20260504204636 | 60 | 175 | 0.0 | 2.0 | 0.00 | 0.00 | 0.00 | 100 | 1017.0 |
| 20260504203634 | 59 | 74 | 1.0 | 4.0 | 0.00 | 0.00 | 0.00 | 100 | 1017.0 |
| 20260504202634 | 58 | 90 | 0.0 | 2.0 | 0.00 | 0.00 | 0.00 | 100 | 1016.7 |
| 20260504201632 | 57 | 90 | 0.0 | 2.0 | 0.00 | 0.00 | 0.00 | 100 | 1016.3 |
| 20260504200630 | 57 | 90 | 0.0 | 3.0 | 0.00 | 0.00 | 0.00 | 100 | 1016.0 |
| 20260504195630 | 57 | 90 | 0.0 | 3.0 | 0.00 | 0.00 | 0.00 | 100 | 1015.7 |
| 20260504194628 | 57 | 83 | 1.0 | 3.0 | 0.00 | 0.00 | 0.00 | 100 | 1015.4 |
| 20260504193626 | 57 | 49 | 0.0 | 2.0 | 0.00 | 0.00 | 0.00 | 100 | 1015.1 |
| 20260504192626 | 57 | 67 | 0.0 | 5.0 | 0.00 | 0.00 | 0.00 | 100 | 1014.8 |
| 20260504191625 | 57 | 125 | 1.0 | 2.0 | 0.00 | 0.00 | 0.00 | 100 | 1014.6 |
| 20260504190622 | 57 | 81 | 2.0 | 4.0 | 0.00 | 0.00 | 0.00 | 100 | 1014.7 |
| 20260504185621 | 58 | 119 | 2.0 | 4.0 | 0.00 | 0.00 | 0.00 | 100 | 1014.4 |
| 20260504184619 | 58 | 76 | 3.0 | 3.0 | 0.00 | 0.00 | 0.00 | 100 | 1014.2 |
| 20260504183618 | 58 | 152 | 0.0 | 4.0 | 0.00 | 0.00 | 0.00 | 100 | 1014.3 |
| 20260504182617 | 58 | 90 | 0.0 | 3.0 | 0.00 | 0.00 | 0.00 | 100 | 1014.0 |
| 20260504181615 | 58 | 144 | 0.0 | 3.0 | 0.00 | 0.00 | 0.00 | 100 | 1013.8 |
| 20260504180614 | 58 | 213 | 1.0 | 3.0 | 0.00 | 0.00 | 0.00 | 100 | 1013.6 |
| 20260504175613 | 58 | 199 | 1.0 | 3.0 | 0.00 | 0.00 | 0.00 | 100 | 1013.3 |
| 20260504174611 | 58 | 85 | 2.0 | 3.0 | 0.00 | 0.00 | 0.00 | 100 | 1013.0 |
| 20260504173610 | 58 | 120 | 1.0 | 2.0 | 0.00 | 0.00 | 0.00 | 100 | 1012.7 |
| 20260504172609 | 58 | 187 | 1.0 | 3.0 | 0.00 | 0.00 | 0.00 | 100 | 1012.4 |
| 20260504171607 | 58 | 45 | 1.0 | 4.0 | 0.00 | 0.00 | 0.00 | 100 | 1012.1 |
| 20260504170606 | 58 | 257 | 3.0 | 4.0 | 0.00 | 0.00 | 0.00 | 100 | 1011.8 |
| 20260504150549 | 62 | 153 | 2.0 | 5.0 | 0.00 | 0.00 | 0.13 | 100 | 1008.8 |
| 20260504140541 | 64 | 85 | 0.0 | 6.0 | 0.00 | 0.00 | 0.13 | 100 | 1007.6 |
| 20260504130535 | 67 | 132 | 1.0 | 3.0 | 0.00 | 0.00 | 0.13 | 100 | 1006.1 |
| 20260504110517 | 70 | 58 | 2.0 | 4.0 | 0.00 | 0.00 | 0.13 | 100 | 1002.4 |
| 20260504100509 | 74 | 85 | 1.0 | 4.0 | 0.00 | 0.00 | 0.13 | 100 | 1000.3 |